FW2285 Weather Reports


Display with metric or nautical units.
time (UTC)temp
F
wind
direction
speed
MPH
gust
MPH
rain 1hr
in
rain 24hr
in
rain mn
in
humidity
%
barometer
mb
20260831044602 85 88 0.0 3.0 0.00 0.00 0.00 36 1011.3
20260831043029 85 113 0.0 6.0 0.00 0.00 0.00 36 1011.2
20260831041534 86 155 0.0 2.0 0.00 0.00 0.00 37 1011.3
20260831040030 86 135 0.0 3.0 0.00 0.00 0.00 36 1011.3
20260831034629 86 139 1.0 4.0 0.00 0.00 0.00 36 1011.1
20260831033032 86 159 1.0 3.0 0.00 0.00 0.00 37 1011.3
20260831031534 86 119 0.0 6.0 0.00 0.00 0.00 37 1011.2
20260831030026 86 112 0.0 4.0 0.00 0.00 0.00 37 1011.1
20260831024526 86 112 0.0 3.0 0.00 0.00 0.00 37 1011.1
20260831023026 87 119 0.0 2.0 0.00 0.00 0.00 36 1011.0
20260831021529 87 119 0.0 2.0 0.00 0.00 0.00 35 1010.8
20260831020025 88 119 0.0 1.0 0.00 0.00 0.00 34 1010.6
20260831014524 89 119 0.0 1.0 0.00 0.00 0.00 34 1010.5
20260831013024 90 119 0.0 3.0 0.00 0.00 0.00 33 1010.3
20260831011527 90 115 0.0 3.0 0.00 0.00 0.00 32 1010.1
20260831010032 92 123 0.0 2.0 0.00 0.00 0.00 31 1010.0
20260831004522 93 123 0.0 3.0 0.00 0.00 0.00 29 1010.0
20260831003023 94 125 0.0 3.0 0.00 0.00 0.00 29 1010.1
20260831001524 95 126 0.0 3.0 0.00 0.00 0.00 28 1009.8
20260831000023 96 150 0.0 3.0 0.00 0.00 0.00 27 1009.8
20260830234520 96 123 1.0 6.0 0.00 0.00 0.00 26 1009.7
20260830233019 97 100 1.0 7.0 0.00 0.00 0.00 25 1009.7
20260830231521 97 15 1.0 7.0 0.00 0.00 0.00 26 1009.8
20260830230018 98 86 2.0 8.0 0.00 0.00 0.00 25 1009.8
20260830224518 98 112 2.0 9.0 0.00 0.00 0.00 25 1009.6
20260830223017 98 112 2.0 9.0 0.00 0.00 0.00 25 1009.7
20260830221516 99 104 2.0 10.0 0.00 0.00 0.00 24 1009.9
20260830220015 99 121 1.0 8.0 0.00 0.00 0.00 25 1009.7
20260830214513 100 44 3.0 10.0 0.00 0.00 0.00 25 1009.9
20260830213011 100 97 1.0 7.0 0.00 0.00 0.00 27 1010.0
20260830211510 100 44 3.0 7.0 0.00 0.00 0.00 25 1010.1
20260830210007 100 100 1.0 10.0 0.00 0.00 0.00 26 1010.2
20260830204505 100 115 2.0 9.0 0.00 0.00 0.00 27 1010.4
20260830203012 99 115 1.0 7.0 0.00 0.00 0.00 29 1010.6
20260830201502 99 122 1.0 7.0 0.00 0.00 0.00 27 1010.8
20260830200058 99 287 1.0 4.0 0.00 0.00 0.00 30 1010.9
20260830194554 98 90 1.0 5.0 0.00 0.00 0.00 31 1011.2
20260830193051 97 151 1.0 7.0 0.00 0.00 0.00 29 1011.4
20260830191546 96 119 2.0 9.0 0.00 0.00 0.00 31 1011.5
20260830190043 95 126 1.0 5.0 0.00 0.00 0.00 33 1011.7
20260830184542 95 55 2.0 7.0 0.00 0.00 0.00 32 1011.8
20260830183039 95 98 2.0 6.0 0.00 0.00 0.00 31 1011.9
20260830181540 95 109 4.0 9.0 0.00 0.00 0.00 32 1011.9
20260830180033 94 109 2.0 7.0 0.00 0.00 0.00 33 1012.1
20260830174529 93 234 2.0 6.0 0.00 0.00 0.00 35 1012.3
20260830173025 92 93 2.0 7.0 0.00 0.00 0.00 35 1012.3
20260830171522 91 258 2.0 13.0 0.00 0.00 0.00 36 1012.5
20260830170017 89 105 1.0 9.0 0.00 0.00 0.00 39 1012.6
20260830164514 88 273 2.0 6.0 0.00 0.00 0.00 38 1012.7
20260830163019 88 284 2.0 6.0 0.00 0.00 0.00 39 1012.7
20260830161510 87 95 2.0 5.0 0.00 0.00 0.00 39 1012.8
20260830160008 86 134 2.0 7.0 0.00 0.00 0.00 43 1012.9
20260830154504 85 279 1.0 6.0 0.00 0.00 0.00 42 1012.7
20260830153059 84 109 2.0 7.0 0.00 0.00 0.00 44 1012.6
20260830151555 83 98 2.0 8.0 0.00 0.00 0.00 43 1012.7
20260830150114 82 132 2.0 8.0 0.00 0.00 0.00 44 1012.6
20260830144549 81 92 0.0 5.0 0.00 0.00 0.00 46 1012.4
20260830143048 80 149 1.0 6.0 0.00 0.00 0.00 45 1012.6
20260830141548 81 106 1.0 9.0 0.00 0.00 0.00 45 1012.7
20260830140046 80 235 1.0 5.0 0.00 0.00 0.00 46 1012.6
20260830134546 80 126 2.0 8.0 0.00 0.00 0.00 45 1012.8
20260830133048 79 325 1.0 9.0 0.00 0.00 0.00 46 1012.8
20260830131545 79 96 1.0 6.0 0.00 0.00 0.00 46 1012.9
20260830130044 79 151 0.0 4.0 0.00 0.00 0.00 46 1013.0
20260830124544 78 188 2.0 4.0 0.00 0.00 0.00 45 1013.0
20260830123043 78 121 1.0 6.0 0.00 0.00 0.00 46 1013.1
20260830121550 77 165 0.0 8.0 0.00 0.00 0.00 47 1013.1
20260830120040 77 106 1.0 4.0 0.00 0.00 0.00 46 1013.1
20260830114544 77 130 0.0 1.0 0.00 0.00 0.00 45 1013.1
20260830113036 78 131 0.0 2.0 0.00 0.00 0.00 45 1012.9
20260830111536 78 111 0.0 3.0 0.00 0.00 0.00 44 1012.8
20260830110034 78 103 1.0 5.0 0.00 0.00 0.00 44 1012.9
20260830104534 78 159 0.0 3.0 0.00 0.00 0.00 44 1013.1
20260830103033 78 84 1.0 4.0 0.00 0.00 0.00 44 1012.8
20260830101542 79 126 1.0 7.0 0.00 0.00 0.00 44 1013.1
20260830100033 79 115 2.0 6.0 0.00 0.00 0.00 44 1012.9
20260830094531 79 244 2.0 6.0 0.00 0.00 0.00 43 1012.9
20260830093033 79 110 1.0 5.0 0.00 0.00 0.00 43 1012.7
20260830091530 79 116 2.0 4.0 0.00 0.00 0.00 43 1012.5
20260830090051 79 121 1.0 9.0 0.00 0.00 0.00 44 1012.8
20260830084530 78 127 2.0 7.0 0.00 0.00 0.00 44 1012.8
20260830083039 78 113 0.0 3.0 0.00 0.00 0.00 45 1012.8
20260830081527 78 121 1.0 6.0 0.00 0.00 0.00 45 1012.7
20260830080025 79 114 0.0 2.0 0.00 0.00 0.00 45 1012.4
20260830074524 79 113 0.0 4.0 0.00 0.00 0.00 44 1012.6
20260830073023 79 109 0.0 3.0 0.00 0.00 0.00 44 1012.6
20260830071523 79 115 1.0 7.0 0.00 0.00 0.00 44 1012.4
20260830070021 79 117 1.0 4.0 0.00 0.00 0.00 44 1012.7
20260830064521 79 118 0.0 3.0 0.00 0.00 0.00 44 1012.8
20260830063021 79 113 1.0 3.0 0.00 0.00 0.00 44 1012.8
20260830061518 79 113 1.0 4.0 0.00 0.00 0.00 44 1012.7
20260830060017 80 117 1.0 6.0 0.00 0.00 0.00 44 1012.8
20260830054515 80 130 0.0 3.0 0.00 0.00 0.00 44 1013.0
20260830053014 80 130 0.0 3.0 0.00 0.00 0.00 43 1012.9
20260830051518 81 112 0.0 2.0 0.00 0.00 0.00 43 1012.8
20260830050010 81 112 1.0 3.0 0.00 0.00 0.00 42 1012.8